UAE368 OMDB-WADD

Flight info

Callsign UAE368
Flight time 8h 33m
Altitude 35000
Route ANVIX L223 TARDI N629 GIDAN DCT PARAR N571 BEKUT/N0489F370 N571 NILAM/N0484F390 N571 GUNIP M630 JUNHA M635 UDONO
Aircraft A388/J-SADE2E3FGHIJ3J4J5M1RWXY/LB1D1

Departure

Time 2026-05-07 22:38
Airport Dubai International Airport (OMDB)

Arrival

Time 2026-05-08 07:12
Airport Denpasar I Gusti Ngurah Rai International Airport (WADD)
Time Latitude Longitude Altitude Speed Heading
2026-05-07 21:41 25.24307 55.37441 26 ft 0 kts 211°
2026-05-07 22:27 25.24319 55.37449 31 ft 4 kts 211°
2026-05-07 22:27 25.24341 55.37464 26 ft 2 kts 211°
2026-05-07 22:28 25.24362 55.37475 25 ft 4 kts 192°
2026-05-07 22:28 25.24387 55.37476 24 ft 4 kts 159°
2026-05-07 22:28 25.24409 55.37460 24 ft 4 kts 126°
2026-05-07 22:28 25.24423 55.37436 25 ft 4 kts 121°
2026-05-07 22:29 25.24433 55.37418 25 ft 0 kts 121°
2026-05-07 22:33 25.24432 55.37420 24 ft 2 kts 121°
2026-05-07 22:33 25.24418 55.37445 24 ft 6 kts 121°
2026-05-07 22:33 25.24392 55.37492 24 ft 9 kts 121°
2026-05-07 22:34 25.24357 55.37555 27 ft 11 kts 121°
2026-05-07 22:34 25.24315 55.37632 27 ft 13 kts 121°
2026-05-07 22:34 25.24277 55.37697 27 ft 9 kts 123°
2026-05-07 22:34 25.24258 55.37741 27 ft 6 kts 85°
2026-05-07 22:35 25.24279 55.37778 27 ft 7 kts 38°
2026-05-07 22:35 25.24327 55.37814 28 ft 10 kts 33°
2026-05-07 22:35 25.24385 55.37856 31 ft 10 kts 33°
2026-05-07 22:35 25.24438 55.37895 35 ft 9 kts 34°
2026-05-07 22:36 25.24500 55.37944 35 ft 13 kts 35°
2026-05-07 22:36 25.24594 55.38017 30 ft 19 kts 34°
2026-05-07 22:36 25.24648 55.38052 31 ft 11 kts 30°
2026-05-07 22:36 25.24710 55.38093 34 ft 7 kts 32°
2026-05-07 22:37 25.24756 55.38104 35 ft 4 kts 327°
2026-05-07 22:37 25.24783 55.38070 35 ft 8 kts 299°
2026-05-07 22:37 25.24815 55.38009 35 ft 27 kts 301°
2026-05-07 22:37 25.25178 55.37356 36 ft 120 kts 301°
2026-05-07 22:38 25.25513 55.36754 34 ft 155 kts 301°
2026-05-07 22:38 25.26143 55.35628 67 ft 184 kts 300°
2026-05-07 22:38 25.26822 55.34431 529 ft 184 kts 300°
2026-05-07 22:38 25.27478 55.33195 875 ft 190 kts 299°
2026-05-07 22:39 25.28146 55.31917 1201 ft 194 kts 299°
2026-05-07 22:39 25.28823 55.30631 1630 ft 188 kts 301°
2026-05-07 22:39 25.29257 55.29292 2007 ft 188 kts 272°
2026-05-07 22:39 25.28947 55.27899 2296 ft 189 kts 244°
2026-05-07 22:40 25.28326 55.26572 2447 ft 198 kts 244°
2026-05-07 22:40 25.27722 55.25188 2662 ft 201 kts 245°
2026-05-07 22:40 25.27130 55.23789 2930 ft 201 kts 245°
2026-05-07 22:40 25.26546 55.22401 3171 ft 202 kts 245°
2026-05-07 22:41 25.25946 55.20980 3383 ft 204 kts 245°
2026-05-07 22:41 25.25330 55.19525 3462 ft 212 kts 245°
2026-05-07 22:41 25.24648 55.18035 3506 ft 227 kts 234°
2026-05-07 22:41 25.23400 55.16926 3807 ft 239 kts 202°
2026-05-07 22:42 25.21773 55.16679 4361 ft 241 kts 177°
2026-05-07 22:42 25.20069 55.16864 4765 ft 253 kts 171°
2026-05-07 22:42 25.18451 55.17648 5246 ft 260 kts 142°
2026-05-07 22:42 25.17316 55.19214 5835 ft 264 kts 120°
2026-05-07 22:43 25.16446 55.21080 6075 ft 282 kts 117°
2026-05-07 22:43 25.15562 55.23055 6491 ft 289 kts 117°
2026-05-07 22:43 25.14658 55.25033 7066 ft 290 kts 117°
2026-05-07 22:43 25.13729 55.27016 7646 ft 292 kts 118°
2026-05-07 22:44 25.12781 55.29006 8240 ft 293 kts 118°
2026-05-07 22:44 25.11822 55.31004 8813 ft 296 kts 118°
2026-05-07 22:44 25.10853 55.33014 9427 ft 297 kts 117°
2026-05-07 22:44 25.09974 55.35094 9987 ft 298 kts 114°
2026-05-07 22:45 25.09131 55.37159 10571 ft 299 kts 113°
2026-05-07 22:45 25.08272 55.39247 11169 ft 299 kts 113°
2026-05-07 22:45 25.07408 55.41343 11750 ft 301 kts 113°
2026-05-07 22:45 25.06545 55.43473 12114 ft 311 kts 112°
2026-05-07 22:46 25.05682 55.45723 12269 ft 326 kts 111°
2026-05-07 22:46 25.04787 55.48088 12412 ft 341 kts 111°
2026-05-07 22:46 25.03853 55.50544 12702 ft 351 kts 111°
2026-05-07 22:46 25.02912 55.52996 13267 ft 352 kts 111°
2026-05-07 22:47 25.01908 55.55497 13821 ft 354 kts 115°
2026-05-07 22:47 25.00666 55.57866 14253 ft 359 kts 119°
2026-05-07 22:47 24.99393 55.60194 14694 ft 362 kts 119°
2026-05-07 22:47 24.98095 55.62592 15161 ft 365 kts 119°
2026-05-07 22:48 24.96791 55.65005 15602 ft 368 kts 119°
2026-05-07 22:48 24.95476 55.67440 16063 ft 371 kts 120°
2026-05-07 22:48 24.94139 55.69887 16497 ft 374 kts 122°
2026-05-07 22:48 24.92613 55.72230 16939 ft 378 kts 125°
2026-05-07 22:49 24.91050 55.74572 17380 ft 381 kts 125°
2026-05-07 22:49 24.89480 55.76937 17813 ft 384 kts 125°
2026-05-07 22:49 24.87898 55.79324 18210 ft 387 kts 126°
2026-05-07 22:49 24.86304 55.81728 18598 ft 390 kts 126°
2026-05-07 22:50 24.84702 55.84144 18991 ft 391 kts 126°
2026-05-07 22:50 24.83086 55.86570 19353 ft 394 kts 126°
2026-05-07 22:50 24.81449 55.88993 19693 ft 397 kts 127°
2026-05-07 22:50 24.79782 55.91445 20044 ft 400 kts 127°
2026-05-07 22:51 24.78045 55.93849 20373 ft 402 kts 133°
2026-05-07 22:51 24.76049 55.96015 20732 ft 404 kts 138°
2026-05-07 22:51 24.73968 55.98126 21065 ft 407 kts 138°
2026-05-07 22:51 24.71890 56.00258 21409 ft 410 kts 138°
2026-05-07 22:52 24.69829 56.02379 21755 ft 412 kts 138°
2026-05-07 22:52 24.67731 56.04538 22088 ft 415 kts 138°
2026-05-07 22:52 24.65617 56.06717 22441 ft 417 kts 138°
2026-05-07 22:52 24.63509 56.08890 22792 ft 419 kts 138°
2026-05-07 22:53 24.61359 56.11103 23095 ft 422 kts 138°
2026-05-07 22:53 24.59211 56.13314 23450 ft 424 kts 138°
2026-05-07 22:53 24.57067 56.15562 23716 ft 428 kts 135°
2026-05-07 22:53 24.55102 56.18028 23978 ft 430 kts 131°
2026-05-07 22:54 24.53157 56.20526 24233 ft 433 kts 132°
2026-05-07 22:54 24.51183 56.23045 24516 ft 435 kts 132°
2026-05-07 22:54 24.49199 56.25568 24785 ft 437 kts 132°
2026-05-07 22:54 24.47208 56.28100 25052 ft 440 kts 132°
2026-05-07 22:55 24.45203 56.30648 25319 ft 442 kts 132°
2026-05-07 22:55 24.43182 56.33217 25556 ft 445 kts 133°
2026-05-07 22:55 24.41154 56.35793 25821 ft 447 kts 133°
2026-05-07 22:55 24.39120 56.38376 26060 ft 449 kts 133°
2026-05-07 22:56 24.37068 56.40980 26340 ft 451 kts 133°
2026-05-07 22:56 24.35004 56.43599 26605 ft 454 kts 133°
2026-05-07 22:56 24.32930 56.46229 26881 ft 457 kts 133°
2026-05-07 22:56 24.30877 56.48830 27168 ft 459 kts 133°
2026-05-07 22:57 24.28875 56.51578 27450 ft 463 kts 128°
2026-05-07 22:57 24.26986 56.54454 27729 ft 466 kts 128°
2026-05-07 22:57 24.25079 56.57340 28044 ft 469 kts 128°
2026-05-07 22:57 24.23157 56.60239 28352 ft 472 kts 128°
2026-05-07 22:58 24.21219 56.63156 28659 ft 475 kts 128°
2026-05-07 22:58 24.19269 56.66089 28989 ft 478 kts 128°
2026-05-07 22:58 24.17311 56.69032 29314 ft 481 kts 128°
2026-05-07 22:58 24.15331 56.72008 29648 ft 484 kts 128°
2026-05-07 22:59 24.13346 56.74990 29957 ft 487 kts 128°
2026-05-07 22:59 24.11342 56.77998 30259 ft 489 kts 128°
2026-05-07 22:59 24.09331 56.81014 30592 ft 492 kts 128°
2026-05-07 22:59 24.07304 56.84054 30889 ft 494 kts 128°
2026-05-07 23:00 24.05293 56.87067 31204 ft 497 kts 128°
2026-05-07 23:00 24.03247 56.90130 31481 ft 500 kts 128°
2026-05-07 23:00 24.01190 56.93205 31789 ft 502 kts 128°
2026-05-07 23:00 23.99126 56.96289 32094 ft 504 kts 128°
2026-05-07 23:01 23.97039 56.99405 32391 ft 507 kts 128°
2026-05-07 23:01 23.94948 57.02525 32716 ft 509 kts 128°
2026-05-07 23:01 23.92848 57.05655 32999 ft 511 kts 128°
2026-05-07 23:01 23.90748 57.08786 33271 ft 514 kts 128°
2026-05-07 23:02 23.88615 57.11961 33581 ft 516 kts 128°
2026-05-07 23:02 23.86490 57.15127 33873 ft 519 kts 128°
2026-05-07 23:02 23.84353 57.18307 34156 ft 520 kts 128°
2026-05-07 23:02 23.82206 57.21502 34451 ft 521 kts 128°
2026-05-07 23:03 23.80082 57.24659 34756 ft 522 kts 128°
2026-05-07 23:03 23.75772 57.31059 34792 ft 524 kts 128°
2026-05-07 23:04 23.71442 57.37475 34786 ft 524 kts 129°
2026-05-07 23:04 23.66930 57.43711 34787 ft 523 kts 131°
2026-05-07 23:05 23.62378 57.49889 34796 ft 522 kts 130°
2026-05-07 23:05 23.57852 57.56083 34804 ft 521 kts 130°
2026-05-07 23:06 23.53368 57.62233 34811 ft 521 kts 130°
2026-05-07 23:06 23.48861 57.68407 34818 ft 520 kts 130°
2026-05-07 23:07 23.44348 57.74578 34828 ft 520 kts 130°
2026-05-07 23:07 23.39832 57.80741 34832 ft 521 kts 130°
2026-05-07 23:08 23.35309 57.86908 34825 ft 521 kts 130°
2026-05-07 23:08 23.30786 57.93067 34820 ft 520 kts 130°
2026-05-07 23:09 23.26268 57.99210 34830 ft 520 kts 130°
2026-05-07 23:09 23.22005 58.05576 34814 ft 521 kts 126°
2026-05-07 23:10 23.17939 58.12035 34815 ft 520 kts 126°
2026-05-07 23:10 23.13841 58.18516 34836 ft 520 kts 126°
2026-05-07 23:11 23.09731 58.25007 34834 ft 520 kts 126°
2026-05-07 23:11 23.05625 58.31485 34836 ft 520 kts 126°
2026-05-07 23:12 23.02251 58.38423 34835 ft 523 kts 109°
2026-05-07 23:12 23.00846 58.46154 34827 ft 523 kts 96°
2026-05-07 23:13 23.00029 58.53958 34825 ft 524 kts 97°
2026-05-07 23:13 22.99182 58.61804 34827 ft 524 kts 97°
2026-05-07 23:14 22.98332 58.69665 34821 ft 524 kts 97°
2026-05-07 23:14 22.97523 58.77129 34814 ft 524 kts 97°
2026-05-07 23:15 22.96666 58.84987 34809 ft 524 kts 97°
2026-05-07 23:15 22.95808 58.92816 34803 ft 524 kts 97°
2026-05-07 23:16 22.94947 59.00642 34793 ft 523 kts 97°
2026-05-07 23:16 22.94080 59.08483 34807 ft 522 kts 97°
2026-05-07 23:17 22.93211 59.16302 34788 ft 521 kts 97°
2026-05-07 23:17 22.92341 59.24101 34768 ft 520 kts 97°
2026-05-07 23:18 22.91470 59.31877 34752 ft 519 kts 97°
2026-05-07 23:18 22.90602 59.39593 34731 ft 518 kts 97°
2026-05-07 23:19 22.89725 59.47349 34720 ft 517 kts 97°
2026-05-07 23:19 22.88845 59.55089 34712 ft 517 kts 97°
2026-05-07 23:20 22.87961 59.62842 34711 ft 518 kts 97°
2026-05-07 23:20 22.87073 59.70594 34711 ft 518 kts 97°
2026-05-07 23:21 22.86181 59.78344 34719 ft 519 kts 97°
2026-05-07 23:21 22.85283 59.86115 34727 ft 519 kts 97°
2026-05-07 23:22 22.84385 59.93849 34731 ft 520 kts 97°
2026-05-07 23:22 22.83478 60.01632 34736 ft 520 kts 97°
2026-05-07 23:23 22.82567 60.09416 34739 ft 520 kts 97°
2026-05-07 23:23 22.81806 60.15888 34738 ft 520 kts 97°
2026-05-07 23:24 22.80888 60.23673 34739 ft 520 kts 97°
2026-05-07 23:24 22.79967 60.31445 34735 ft 520 kts 97°
2026-05-07 23:25 22.78891 60.40480 34737 ft 520 kts 97°
2026-05-07 23:25 22.78113 60.46991 34736 ft 520 kts 97°
2026-05-07 23:26 22.77188 60.54702 34736 ft 520 kts 97°
2026-05-07 23:26 22.76251 60.62476 34732 ft 520 kts 97°
2026-05-07 23:27 22.74840 60.74126 34735 ft 520 kts 97°
2026-05-07 23:27 22.73893 60.81904 34733 ft 520 kts 97°
2026-05-07 23:28 22.72944 60.89673 34735 ft 521 kts 97°
2026-05-07 23:28 22.71988 60.97460 34737 ft 521 kts 97°
2026-05-07 23:29 22.71028 61.05250 34743 ft 521 kts 97°
2026-05-07 23:29 22.70070 61.12992 34744 ft 522 kts 97°
2026-05-07 23:30 22.69101 61.20787 34743 ft 522 kts 97°
2026-05-07 23:30 22.68131 61.28570 34743 ft 522 kts 97°
2026-05-07 23:31 22.67156 61.36351 34749 ft 522 kts 97°
2026-05-07 23:31 22.66176 61.44141 34742 ft 522 kts 97°
2026-05-07 23:32 22.65194 61.51921 34747 ft 522 kts 97°
2026-05-07 23:32 22.64213 61.59662 34744 ft 522 kts 97°
2026-05-07 23:33 22.63222 61.67453 34750 ft 522 kts 97°
2026-05-07 23:33 22.62228 61.75233 34748 ft 522 kts 97°
2026-05-07 23:34 22.61229 61.83018 34749 ft 521 kts 97°
2026-05-07 23:34 22.60228 61.90799 34751 ft 521 kts 97°
2026-05-07 23:35 22.59229 61.98525 34749 ft 521 kts 97°
2026-05-07 23:35 22.58221 62.06297 34749 ft 521 kts 97°
2026-05-07 23:36 22.57209 62.14067 34749 ft 521 kts 97°
2026-05-07 23:36 22.56200 62.21785 34747 ft 521 kts 97°
2026-05-07 23:37 22.55175 62.29589 34752 ft 521 kts 97°
2026-05-07 23:37 22.54159 62.37302 34752 ft 521 kts 97°
2026-05-07 23:38 22.53134 62.45055 34754 ft 521 kts 97°
2026-05-07 23:38 22.52102 62.52827 34760 ft 521 kts 97°
2026-05-07 23:39 22.51069 62.60585 34759 ft 521 kts 97°
2026-05-07 23:39 22.50029 62.68358 34760 ft 522 kts 97°
2026-05-07 23:40 22.48993 62.76080 34763 ft 522 kts 97°
2026-05-07 23:40 22.47946 62.83847 34766 ft 522 kts 97°
2026-05-07 23:41 22.46896 62.91609 34765 ft 522 kts 97°
2026-05-07 23:41 22.45845 62.99371 34767 ft 522 kts 97°
2026-05-07 23:42 22.44755 63.07191 34769 ft 522 kts 100°
2026-05-07 23:42 22.42744 63.14669 34771 ft 523 kts 111°
2026-05-07 23:43 22.39628 63.21778 34766 ft 523 kts 116°
2026-05-07 23:43 22.36468 63.28852 34767 ft 523 kts 115°
2026-05-07 23:44 22.33303 63.35938 34773 ft 523 kts 115°
2026-05-07 23:44 22.30132 63.43008 34773 ft 523 kts 115°
2026-05-07 23:45 22.26951 63.50086 34775 ft 523 kts 115°
2026-05-07 23:45 22.23788 63.57115 34776 ft 523 kts 115°
2026-05-07 23:46 22.20600 63.64188 34775 ft 523 kts 116°
2026-05-07 23:46 22.17410 63.71256 34782 ft 523 kts 116°
2026-05-07 23:47 22.14222 63.78310 34780 ft 523 kts 116°
2026-05-07 23:47 22.11035 63.85352 34779 ft 523 kts 116°
2026-05-07 23:48 22.07840 63.92403 34782 ft 523 kts 116°
2026-05-07 23:48 22.04663 63.99401 34784 ft 522 kts 116°
2026-05-07 23:49 22.01473 64.06422 34781 ft 522 kts 116°
2026-05-07 23:49 21.98266 64.13468 34781 ft 522 kts 116°
2026-05-07 23:50 21.95062 64.20497 34785 ft 522 kts 116°
2026-05-07 23:50 21.91862 64.27510 34780 ft 522 kts 116°
2026-05-07 23:51 21.88675 64.34484 34786 ft 522 kts 116°
2026-05-07 23:51 21.85470 64.41488 34791 ft 522 kts 116°
2026-05-07 23:52 21.82257 64.48498 34790 ft 521 kts 116°
2026-05-07 23:52 21.79048 64.55492 34787 ft 521 kts 116°
2026-05-07 23:53 21.75832 64.62492 34789 ft 521 kts 116°
2026-05-07 23:53 21.72618 64.69476 34789 ft 521 kts 116°
2026-05-07 23:54 21.69398 64.76464 34788 ft 521 kts 116°
2026-05-07 23:54 21.66180 64.83440 34789 ft 521 kts 116°
2026-05-07 23:55 21.62959 64.90412 34792 ft 521 kts 116°
2026-05-07 23:55 21.59729 64.97392 34792 ft 521 kts 116°
2026-05-07 23:56 21.56518 65.04323 34796 ft 521 kts 116°
2026-05-07 23:56 21.53289 65.11284 34803 ft 521 kts 116°
2026-05-07 23:57 21.50053 65.18252 34801 ft 520 kts 116°
2026-05-07 23:57 21.46822 65.25199 34802 ft 520 kts 116°
2026-05-07 23:58 21.43578 65.32164 34805 ft 520 kts 116°
2026-05-07 23:58 21.40365 65.39054 34801 ft 520 kts 116°
2026-05-07 23:59 21.37123 65.45995 34801 ft 520 kts 116°
2026-05-07 23:59 21.33880 65.52933 34802 ft 519 kts 116°
2026-05-08 00:00 21.30634 65.59865 34797 ft 519 kts 116°
2026-05-08 00:00 21.27385 65.66794 34803 ft 519 kts 116°
2026-05-08 00:01 21.24137 65.73713 34806 ft 520 kts 116°
2026-05-08 00:01 21.20904 65.80591 34810 ft 519 kts 116°
2026-05-08 00:02 21.17647 65.87510 34812 ft 519 kts 116°
2026-05-08 00:02 21.14396 65.94413 34812 ft 519 kts 116°
2026-05-08 00:03 21.11139 66.01324 34813 ft 519 kts 116°
2026-05-08 00:03 21.07993 66.08230 34812 ft 519 kts 115°
2026-05-08 00:04 21.04854 66.15185 34816 ft 519 kts 115°
2026-05-08 00:04 21.01700 66.22134 34815 ft 519 kts 115°
2026-05-08 00:05 20.98542 66.29068 34816 ft 518 kts 115°
2026-05-08 00:05 20.95375 66.36011 34816 ft 519 kts 115°
2026-05-08 00:06 20.92225 66.42906 34814 ft 519 kts 116°
2026-05-08 00:06 20.89057 66.49833 34815 ft 519 kts 116°
2026-05-08 00:07 20.85880 66.56770 34815 ft 519 kts 116°
2026-05-08 00:07 20.82699 66.63706 34814 ft 519 kts 116°
2026-05-08 00:08 20.79520 66.70628 34814 ft 519 kts 116°
2026-05-08 00:08 20.76333 66.77559 34816 ft 519 kts 116°
2026-05-08 00:09 20.73164 66.84442 34819 ft 519 kts 116°
2026-05-08 00:09 20.69977 66.91357 34816 ft 519 kts 116°
2026-05-08 00:10 20.66778 66.98288 34818 ft 519 kts 116°
2026-05-08 00:10 20.63585 67.05197 34817 ft 519 kts 116°
2026-05-08 00:11 20.60383 67.12115 34814 ft 519 kts 116°
2026-05-08 00:11 20.57178 67.19033 34815 ft 519 kts 116°
2026-05-08 00:12 20.53991 67.25903 34821 ft 519 kts 116°
2026-05-08 00:12 20.50785 67.32804 34826 ft 519 kts 116°
2026-05-08 00:13 20.47572 67.39713 34822 ft 519 kts 116°
2026-05-08 00:13 20.44362 67.46606 34826 ft 519 kts 116°
2026-05-08 00:14 20.41689 67.52338 34822 ft 519 kts 116°
2026-05-08 00:14 20.38470 67.59234 34821 ft 519 kts 116°
2026-05-08 00:15 20.35255 67.66114 34824 ft 519 kts 116°
2026-05-08 00:15 20.32032 67.73001 34823 ft 519 kts 116°
2026-05-08 00:16 20.28828 67.79839 34824 ft 519 kts 116°
2026-05-08 00:16 20.25606 67.86708 34824 ft 519 kts 116°
2026-05-08 00:17 20.22360 67.93619 34826 ft 518 kts 116°
2026-05-08 00:17 20.19149 68.00446 34825 ft 518 kts 116°
2026-05-08 00:18 20.15915 68.07314 34824 ft 518 kts 116°
2026-05-08 00:18 20.12678 68.14180 34824 ft 518 kts 116°
2026-05-08 00:19 20.09457 68.21004 34825 ft 518 kts 116°
2026-05-08 00:19 20.06215 68.27865 34825 ft 518 kts 116°
2026-05-08 00:20 20.02969 68.34723 34829 ft 518 kts 116°
2026-05-08 00:20 19.99727 68.41567 34828 ft 518 kts 116°
2026-05-08 00:21 19.96476 68.48421 34823 ft 519 kts 116°
2026-05-08 00:21 19.93227 68.55262 34826 ft 519 kts 117°
2026-05-08 00:22 19.89992 68.62064 34830 ft 519 kts 117°
2026-05-08 00:22 19.86733 68.68910 34831 ft 519 kts 117°
2026-05-08 00:23 19.83476 68.75742 34830 ft 519 kts 117°
2026-05-08 00:23 19.80212 68.82583 34829 ft 519 kts 117°
2026-05-08 00:24 19.76966 68.89376 34825 ft 519 kts 117°
2026-05-08 00:24 19.73701 68.96201 34829 ft 519 kts 117°
2026-05-08 00:25 19.70433 69.03025 34830 ft 519 kts 117°
2026-05-08 00:25 19.67154 69.09861 34827 ft 519 kts 117°
2026-05-08 00:26 19.63874 69.16693 34829 ft 519 kts 117°
2026-05-08 00:26 19.60596 69.23512 34829 ft 519 kts 117°
2026-05-08 00:27 19.57317 69.30331 34830 ft 519 kts 117°
2026-05-08 00:27 19.54039 69.37164 34829 ft 519 kts 116°
2026-05-08 00:28 19.50890 69.44051 34827 ft 519 kts 116°
2026-05-08 00:28 19.47756 69.50946 34825 ft 520 kts 116°
2026-05-08 00:29 19.44620 69.57798 34828 ft 520 kts 116°
2026-05-08 00:29 19.41455 69.64692 34826 ft 520 kts 116°
2026-05-08 00:30 19.38286 69.71583 34829 ft 520 kts 116°
2026-05-08 00:30 19.35119 69.78462 34828 ft 520 kts 116°
2026-05-08 00:31 19.31948 69.85339 34827 ft 520 kts 116°
2026-05-08 00:31 19.28769 69.92226 34829 ft 520 kts 116°
2026-05-08 00:32 19.25593 69.99101 34831 ft 520 kts 116°
2026-05-08 00:32 19.22428 70.05941 34826 ft 520 kts 116°
2026-05-08 00:33 19.19222 70.12861 34828 ft 521 kts 116°
2026-05-08 00:33 19.16051 70.19700 34829 ft 521 kts 116°
2026-05-08 00:34 19.12855 70.26584 34827 ft 521 kts 116°
2026-05-08 00:34 19.09656 70.33465 34830 ft 521 kts 116°
2026-05-08 00:35 19.06460 70.40332 34829 ft 521 kts 116°
2026-05-08 00:35 19.03256 70.47209 34828 ft 521 kts 117°
2026-05-08 00:36 19.00070 70.54036 34826 ft 521 kts 116°
2026-05-08 00:36 18.96867 70.60894 34825 ft 521 kts 117°
2026-05-08 00:37 18.93640 70.67796 34822 ft 521 kts 117°
2026-05-08 00:38 18.88839 70.78048 34822 ft 521 kts 117°
2026-05-08 00:38 18.85604 70.84946 34825 ft 521 kts 117°
2026-05-08 00:39 18.82404 70.91762 34825 ft 521 kts 117°
2026-05-08 00:39 18.79179 70.98622 34824 ft 521 kts 117°
2026-05-08 00:40 18.75956 71.05471 34826 ft 521 kts 117°
2026-05-08 00:40 18.72736 71.12304 34825 ft 521 kts 117°
2026-05-08 00:41 18.69498 71.19170 34828 ft 521 kts 117°
2026-05-08 00:41 18.66267 71.26011 34828 ft 521 kts 117°
2026-05-08 00:42 18.63029 71.32861 34827 ft 521 kts 117°
2026-05-08 00:42 18.59808 71.39664 34828 ft 521 kts 117°
2026-05-08 00:43 18.56570 71.46499 34827 ft 521 kts 117°
2026-05-08 00:43 18.53317 71.53355 34828 ft 521 kts 117°
2026-05-08 00:44 18.50073 71.60185 34824 ft 521 kts 117°
2026-05-08 00:44 18.46822 71.67023 34824 ft 521 kts 117°
2026-05-08 00:45 18.43574 71.73846 34824 ft 521 kts 117°
2026-05-08 00:45 18.40319 71.80676 34822 ft 521 kts 117°
2026-05-08 00:46 18.37067 71.87493 34822 ft 521 kts 117°
2026-05-08 00:46 18.33805 71.94322 34822 ft 521 kts 117°
2026-05-08 00:47 18.30571 72.01085 34819 ft 521 kts 117°
2026-05-08 00:47 18.27306 72.07904 34819 ft 521 kts 117°
2026-05-08 00:48 18.24045 72.14711 34820 ft 521 kts 117°
2026-05-08 00:48 18.20778 72.21520 34826 ft 521 kts 117°
2026-05-08 00:49 18.17516 72.28311 34827 ft 520 kts 117°
2026-05-08 00:49 18.14270 72.35063 34820 ft 520 kts 117°
2026-05-08 00:50 18.11001 72.41853 34823 ft 520 kts 117°
2026-05-08 00:50 18.07737 72.48627 34822 ft 519 kts 117°
2026-05-08 00:51 18.04471 72.55396 34816 ft 519 kts 117°
2026-05-08 00:51 18.01199 72.62171 34817 ft 519 kts 118°
2026-05-08 00:52 17.97930 72.68933 34816 ft 519 kts 118°
2026-05-08 00:52 17.94662 72.75685 34818 ft 519 kts 118°
2026-05-08 00:53 17.91393 72.82432 34818 ft 518 kts 118°
2026-05-08 00:53 17.88118 72.89184 34817 ft 518 kts 118°
2026-05-08 00:54 17.84852 72.95909 35140 ft 520 kts 118°
2026-05-08 00:54 17.83215 72.99280 35580 ft 519 kts 118°
2026-05-08 00:54 17.81575 73.02653 36015 ft 518 kts 118°
2026-05-08 00:54 17.79943 73.06009 36424 ft 517 kts 118°
2026-05-08 00:55 17.78300 73.09384 36740 ft 518 kts 118°
2026-05-08 00:55 17.75050 73.16061 36825 ft 513 kts 118°
2026-05-08 00:56 17.71784 73.22762 36826 ft 514 kts 118°
2026-05-08 00:56 17.68532 73.29412 36826 ft 515 kts 118°
2026-05-08 00:57 17.65268 73.36083 36835 ft 514 kts 118°
2026-05-08 00:57 17.62001 73.42758 36828 ft 514 kts 118°
2026-05-08 00:58 17.58735 73.49423 36839 ft 514 kts 118°
2026-05-08 00:58 17.55467 73.56086 36841 ft 514 kts 118°
2026-05-08 00:59 17.52199 73.62740 36847 ft 514 kts 118°
2026-05-08 00:59 17.48946 73.69359 36850 ft 514 kts 118°
2026-05-08 01:00 17.46205 73.74930 36867 ft 514 kts 118°
2026-05-08 01:00 17.42925 73.81591 36871 ft 514 kts 118°
2026-05-08 01:01 17.39662 73.88208 36876 ft 514 kts 118°
2026-05-08 01:01 17.36381 73.94857 36884 ft 514 kts 118°
2026-05-08 01:02 17.33091 74.01518 36891 ft 514 kts 118°
2026-05-08 01:02 17.29805 74.08163 36891 ft 514 kts 118°
2026-05-08 01:03 17.26516 74.14806 36894 ft 514 kts 118°
2026-05-08 01:03 17.23232 74.21434 36894 ft 513 kts 118°
2026-05-08 01:04 17.19943 74.28067 36889 ft 513 kts 118°
2026-05-08 01:04 17.16662 74.34681 36888 ft 512 kts 118°
2026-05-08 01:05 17.13394 74.41266 36889 ft 512 kts 118°
2026-05-08 01:05 17.10114 74.47865 36888 ft 511 kts 118°
2026-05-08 01:06 17.06829 74.54468 36888 ft 511 kts 118°
2026-05-08 01:06 17.03543 74.61067 36886 ft 511 kts 118°
2026-05-08 01:07 17.00262 74.67649 36892 ft 511 kts 118°
2026-05-08 01:07 16.96975 74.74236 36892 ft 510 kts 118°
2026-05-08 01:08 16.93710 74.80774 36895 ft 510 kts 118°
2026-05-08 01:08 16.90425 74.87344 36897 ft 509 kts 118°
2026-05-08 01:09 16.87146 74.93896 36901 ft 509 kts 118°
2026-05-08 01:09 16.83864 75.00448 36902 ft 508 kts 118°
2026-05-08 01:10 16.80578 75.07002 36896 ft 508 kts 118°
2026-05-08 01:10 16.77325 75.13484 36900 ft 508 kts 119°
2026-05-08 01:11 16.74036 75.20030 36895 ft 508 kts 119°
2026-05-08 01:11 16.70756 75.26552 36895 ft 508 kts 119°
2026-05-08 01:12 16.67473 75.33072 36895 ft 508 kts 119°
2026-05-08 01:12 16.64198 75.39573 36894 ft 508 kts 119°
2026-05-08 01:13 16.60904 75.46104 36892 ft 509 kts 119°
2026-05-08 01:13 16.57748 75.52722 36895 ft 510 kts 116°
2026-05-08 01:14 16.54714 75.59404 36901 ft 510 kts 116°
2026-05-08 01:14 16.51643 75.66079 36904 ft 510 kts 117°
2026-05-08 01:15 16.48561 75.72731 36907 ft 510 kts 117°
2026-05-08 01:15 16.45477 75.79376 36906 ft 509 kts 117°
2026-05-08 01:16 16.42413 75.85974 36904 ft 508 kts 117°
2026-05-08 01:16 16.39334 75.92597 36902 ft 508 kts 117°
2026-05-08 01:17 16.36252 75.99218 36904 ft 507 kts 117°
2026-05-08 01:17 16.33161 76.05810 36903 ft 506 kts 117°
2026-05-08 01:18 16.30052 76.12393 36903 ft 506 kts 117°
2026-05-08 01:18 16.26950 76.18965 36904 ft 506 kts 117°
2026-05-08 01:19 16.23858 76.25514 36908 ft 506 kts 117°
2026-05-08 01:19 16.20753 76.32083 36905 ft 506 kts 117°
2026-05-08 01:20 16.17638 76.38670 36910 ft 507 kts 117°
2026-05-08 01:20 16.14517 76.45261 36919 ft 507 kts 117°
2026-05-08 01:21 16.11403 76.51831 36917 ft 507 kts 117°
2026-05-08 01:21 16.08285 76.58402 36919 ft 507 kts 117°
2026-05-08 01:22 16.05181 76.64938 36920 ft 507 kts 117°
2026-05-08 01:22 16.02059 76.71506 36924 ft 507 kts 117°
2026-05-08 01:23 15.98938 76.78066 36933 ft 506 kts 117°
2026-05-08 01:23 15.95814 76.84626 36931 ft 506 kts 117°
2026-05-08 01:24 15.92691 76.91178 36931 ft 505 kts 117°
2026-05-08 01:24 15.89570 76.97720 36931 ft 504 kts 117°
2026-05-08 01:25 15.86456 77.04239 36930 ft 504 kts 117°
2026-05-08 01:25 15.83360 77.10715 36928 ft 503 kts 117°
2026-05-08 01:26 15.80228 77.17261 36924 ft 503 kts 117°
2026-05-08 01:26 15.77116 77.23759 36927 ft 502 kts 117°
2026-05-08 01:27 15.74004 77.30251 36925 ft 503 kts 117°
2026-05-08 01:27 15.70904 77.36716 36932 ft 503 kts 117°
2026-05-08 01:28 15.67806 77.43227 36936 ft 503 kts 117°
2026-05-08 01:28 15.64705 77.49749 36939 ft 503 kts 117°
2026-05-08 01:29 15.61602 77.56259 36949 ft 504 kts 117°
2026-05-08 01:29 15.58496 77.62768 36952 ft 504 kts 117°
2026-05-08 01:30 15.55381 77.69291 36953 ft 504 kts 117°
2026-05-08 01:30 15.52271 77.75795 36956 ft 503 kts 117°
2026-05-08 01:31 15.49159 77.82300 36961 ft 503 kts 117°
2026-05-08 01:31 15.46065 77.88760 36956 ft 503 kts 117°
2026-05-08 01:32 15.42954 77.95251 36960 ft 503 kts 117°
2026-05-08 01:32 15.39834 78.01753 36955 ft 503 kts 117°
2026-05-08 01:33 15.36719 78.08239 36955 ft 503 kts 117°
2026-05-08 01:33 15.33591 78.14701 36952 ft 502 kts 118°
2026-05-08 01:34 15.30420 78.21172 36946 ft 502 kts 118°
2026-05-08 01:34 15.27263 78.27623 36942 ft 502 kts 118°
2026-05-08 01:35 15.24104 78.34081 36935 ft 502 kts 118°
2026-05-08 01:35 15.20970 78.40481 36932 ft 502 kts 118°
2026-05-08 01:36 15.17814 78.46919 36928 ft 501 kts 118°
2026-05-08 01:36 15.14651 78.53367 36926 ft 501 kts 118°
2026-05-08 01:37 15.11493 78.59799 36922 ft 501 kts 118°
2026-05-08 01:37 15.08334 78.66226 36912 ft 501 kts 118°
2026-05-08 01:38 15.05176 78.72648 36909 ft 501 kts 118°
2026-05-08 01:38 15.02018 78.79063 36904 ft 500 kts 118°
2026-05-08 01:39 14.98854 78.85483 36908 ft 500 kts 118°
2026-05-08 01:39 14.95711 78.91857 36901 ft 500 kts 118°
2026-05-08 01:40 14.92548 78.98266 36901 ft 499 kts 118°
2026-05-08 01:40 14.89390 79.04658 36896 ft 499 kts 118°
2026-05-08 01:41 14.86228 79.11054 36891 ft 499 kts 118°
2026-05-08 01:41 14.83071 79.17434 36888 ft 499 kts 118°
2026-05-08 01:42 14.79908 79.23820 36888 ft 498 kts 118°
2026-05-08 01:42 14.76773 79.30146 36879 ft 498 kts 118°
2026-05-08 01:43 14.73617 79.36507 36879 ft 497 kts 118°
2026-05-08 01:43 14.70457 79.42872 36873 ft 497 kts 118°
2026-05-08 01:44 14.67303 79.49220 36869 ft 497 kts 118°
2026-05-08 01:44 14.64138 79.55583 36870 ft 497 kts 118°
2026-05-08 01:45 14.60978 79.61932 36868 ft 497 kts 118°
2026-05-08 01:45 14.57831 79.68248 36867 ft 497 kts 118°
2026-05-08 01:46 14.54666 79.74597 36869 ft 497 kts 118°
2026-05-08 01:46 14.51479 79.80984 36867 ft 497 kts 118°
2026-05-08 01:47 14.48328 79.87294 36861 ft 497 kts 118°
2026-05-08 01:47 14.45160 79.93633 36860 ft 497 kts 118°
2026-05-08 01:48 14.40403 80.03141 36863 ft 497 kts 118°
2026-05-08 01:48 14.37766 80.08406 36861 ft 497 kts 118°
2026-05-08 01:49 14.34591 80.14740 36859 ft 496 kts 118°
2026-05-08 01:49 14.31423 80.21058 36858 ft 496 kts 118°
2026-05-08 01:50 14.28255 80.27368 36857 ft 496 kts 118°
2026-05-08 01:50 14.25075 80.33697 36856 ft 495 kts 119°
2026-05-08 01:51 14.21912 80.39989 36856 ft 495 kts 119°
2026-05-08 01:51 14.18762 80.46249 36856 ft 494 kts 119°
2026-05-08 01:52 14.15591 80.52545 36858 ft 494 kts 119°
2026-05-08 01:52 14.12421 80.58834 36856 ft 494 kts 119°
2026-05-08 01:53 14.09249 80.65123 36862 ft 494 kts 119°
2026-05-08 01:53 14.06098 80.71366 36861 ft 494 kts 119°
2026-05-08 01:54 14.02925 80.77647 36866 ft 494 kts 119°
2026-05-08 01:54 13.99759 80.83914 36866 ft 493 kts 119°
2026-05-08 01:55 13.96677 80.90225 36863 ft 494 kts 118°
2026-05-08 01:55 13.93619 80.96561 36864 ft 494 kts 118°
2026-05-08 01:56 13.90566 81.02848 36864 ft 494 kts 118°
2026-05-08 01:56 13.87470 81.09207 36861 ft 494 kts 118°
2026-05-08 01:57 13.84405 81.15496 36862 ft 494 kts 118°
2026-05-08 01:57 13.81317 81.21828 36867 ft 495 kts 118°
2026-05-08 01:58 13.78225 81.28164 36862 ft 495 kts 118°
2026-05-08 01:58 13.75129 81.34501 36867 ft 495 kts 118°
2026-05-08 01:59 13.72049 81.40802 36868 ft 496 kts 118°
2026-05-08 01:59 13.68953 81.47131 36868 ft 496 kts 118°
2026-05-08 02:00 13.65855 81.53480 36870 ft 496 kts 118°
2026-05-08 02:00 13.62762 81.59820 36869 ft 496 kts 118°
2026-05-08 02:01 13.59657 81.66174 36860 ft 497 kts 118°
2026-05-08 02:01 13.56548 81.72532 36867 ft 497 kts 118°
2026-05-08 02:02 13.53441 81.78880 36868 ft 497 kts 118°
2026-05-08 02:02 13.50332 81.85229 36866 ft 498 kts 118°
2026-05-08 02:03 13.47241 81.91534 36867 ft 498 kts 118°
2026-05-08 02:03 13.44122 81.97891 36861 ft 498 kts 118°
2026-05-08 02:04 13.41006 82.04237 36863 ft 497 kts 118°
2026-05-08 02:04 13.37886 82.10588 36865 ft 497 kts 118°
2026-05-08 02:05 13.34766 82.16933 36867 ft 497 kts 118°
2026-05-08 02:05 13.31650 82.23266 36865 ft 497 kts 118°
2026-05-08 02:06 13.28548 82.29565 36862 ft 496 kts 118°
2026-05-08 02:06 13.25434 82.35884 36861 ft 496 kts 118°
2026-05-08 02:07 13.22320 82.42198 36857 ft 496 kts 118°
2026-05-08 02:07 13.19199 82.48521 36853 ft 496 kts 118°
2026-05-08 02:08 13.16086 82.54823 36859 ft 495 kts 118°
2026-05-08 02:08 13.12962 82.61144 36856 ft 495 kts 118°
2026-05-08 02:09 13.09868 82.67398 36856 ft 495 kts 118°
2026-05-08 02:09 13.06748 82.73700 36852 ft 495 kts 118°
2026-05-08 02:10 13.03630 82.79995 36862 ft 494 kts 118°
2026-05-08 02:10 13.00512 82.86284 36857 ft 494 kts 118°
2026-05-08 02:11 12.97399 82.92557 36861 ft 493 kts 118°
2026-05-08 02:11 12.94283 82.98833 36859 ft 493 kts 118°
2026-05-08 02:12 12.91170 83.05099 36861 ft 492 kts 118°
2026-05-08 02:12 12.88085 83.11302 36860 ft 492 kts 118°
2026-05-08 02:13 12.84978 83.17547 36859 ft 491 kts 118°
2026-05-08 02:13 12.81874 83.23780 36864 ft 490 kts 118°
2026-05-08 02:14 12.78773 83.30005 36850 ft 490 kts 118°
2026-05-08 02:14 12.75672 83.36224 36848 ft 489 kts 118°
2026-05-08 02:15 12.72590 83.42399 36855 ft 490 kts 118°
2026-05-08 02:15 12.69486 83.48616 36849 ft 490 kts 118°
2026-05-08 02:16 12.66379 83.54835 36850 ft 490 kts 118°
2026-05-08 02:16 12.63328 83.61074 36854 ft 490 kts 117°
2026-05-08 02:17 12.60334 83.67349 36856 ft 491 kts 117°
2026-05-08 02:17 12.57336 83.73601 36860 ft 491 kts 117°
2026-05-08 02:18 12.54320 83.79872 36857 ft 491 kts 117°
2026-05-08 02:18 12.51296 83.86152 36859 ft 491 kts 117°
2026-05-08 02:19 12.48270 83.92430 36863 ft 491 kts 117°
2026-05-08 02:19 12.45243 83.98705 36868 ft 491 kts 117°
2026-05-08 02:20 12.42220 84.04966 36859 ft 491 kts 117°
2026-05-08 02:20 12.39198 84.11222 36865 ft 491 kts 117°
2026-05-08 02:21 12.36190 84.17443 36856 ft 490 kts 117°
2026-05-08 02:21 12.33166 84.23694 36856 ft 491 kts 117°
2026-05-08 02:22 12.30140 84.29944 36857 ft 491 kts 117°
2026-05-08 02:22 12.27106 84.36206 36853 ft 491 kts 117°
2026-05-08 02:23 12.24075 84.42459 36860 ft 491 kts 117°
2026-05-08 02:23 12.21034 84.48725 36863 ft 491 kts 117°
2026-05-08 02:24 12.18147 84.54673 36859 ft 492 kts 117°
2026-05-08 02:24 12.15106 84.60931 36855 ft 492 kts 117°
2026-05-08 02:25 12.12080 84.67156 36859 ft 492 kts 117°
2026-05-08 02:25 12.09043 84.73399 36879 ft 491 kts 117°
2026-05-08 02:26 12.05989 84.79673 36883 ft 490 kts 117°
2026-05-08 02:26 12.02953 84.85906 36885 ft 490 kts 117°
2026-05-08 02:27 11.99928 84.92110 36882 ft 489 kts 117°
2026-05-08 02:27 11.96891 84.98336 36865 ft 489 kts 117°
2026-05-08 02:28 11.93856 85.04554 36861 ft 488 kts 117°
2026-05-08 02:28 11.90821 85.10767 36866 ft 488 kts 117°
2026-05-08 02:29 11.87786 85.16976 36879 ft 488 kts 117°
2026-05-08 02:29 11.84772 85.23138 36877 ft 488 kts 117°
2026-05-08 02:30 11.81742 85.29328 36861 ft 487 kts 117°
2026-05-08 02:30 11.78707 85.35525 36859 ft 487 kts 117°
2026-05-08 02:31 11.75673 85.41718 36860 ft 487 kts 117°
2026-05-08 02:31 11.72636 85.47909 36857 ft 487 kts 117°
2026-05-08 02:32 11.69617 85.54061 36859 ft 488 kts 117°
2026-05-08 02:32 11.66580 85.60246 36859 ft 488 kts 117°
2026-05-08 02:33 11.63532 85.66448 36877 ft 488 kts 117°
2026-05-08 02:33 11.60499 85.72617 36882 ft 489 kts 117°
2026-05-08 02:34 11.57451 85.78812 36881 ft 489 kts 117°
2026-05-08 02:34 11.54400 85.85008 36879 ft 489 kts 117°
2026-05-08 02:35 11.51338 85.91224 36880 ft 489 kts 117°
2026-05-08 02:35 11.48300 85.97387 36880 ft 489 kts 117°
2026-05-08 02:36 11.45250 86.03569 36882 ft 488 kts 117°
2026-05-08 02:36 11.42199 86.09750 36880 ft 487 kts 117°
2026-05-08 02:37 11.39155 86.15913 36885 ft 486 kts 117°
2026-05-08 02:37 11.36620 86.21041 36867 ft 486 kts 117°
2026-05-08 02:38 11.33583 86.27183 36868 ft 485 kts 117°
2026-05-08 02:38 11.30542 86.33329 36872 ft 485 kts 117°
2026-05-08 02:39 11.27509 86.39455 36884 ft 484 kts 117°
2026-05-08 02:39 11.24489 86.45550 36870 ft 484 kts 117°
2026-05-08 02:40 11.21448 86.51685 36866 ft 485 kts 117°
2026-05-08 02:40 11.18409 86.57812 36888 ft 485 kts 117°
2026-05-08 02:41 11.15360 86.63952 36869 ft 485 kts 117°
2026-05-08 02:41 11.12309 86.70097 36869 ft 486 kts 117°
2026-05-08 02:42 11.09273 86.76206 36867 ft 486 kts 117°
2026-05-08 02:42 11.06212 86.82360 36870 ft 487 kts 117°
2026-05-08 02:43 11.03153 86.88508 36877 ft 487 kts 117°
2026-05-08 02:43 11.00086 86.94667 36895 ft 487 kts 117°
2026-05-08 02:44 10.97017 87.00827 36894 ft 487 kts 117°
2026-05-08 02:44 10.93949 87.06982 36877 ft 487 kts 117°
2026-05-08 02:45 10.90884 87.13126 36875 ft 487 kts 117°
2026-05-08 02:45 10.87832 87.19242 36895 ft 487 kts 117°
2026-05-08 02:46 10.84763 87.25388 36895 ft 487 kts 117°
2026-05-08 02:46 10.81694 87.31529 36893 ft 487 kts 117°
2026-05-08 02:47 10.78617 87.37683 36876 ft 488 kts 117°
2026-05-08 02:47 10.75541 87.43831 36876 ft 488 kts 117°
2026-05-08 02:48 10.72461 87.49982 36875 ft 489 kts 117°
2026-05-08 02:48 10.69374 87.56146 36879 ft 489 kts 117°
2026-05-08 02:49 10.66291 87.62298 36895 ft 488 kts 117°
2026-05-08 02:49 10.63219 87.68422 36895 ft 488 kts 117°
2026-05-08 02:50 10.60142 87.74553 36900 ft 487 kts 117°
2026-05-08 02:50 10.57059 87.80694 36895 ft 487 kts 117°
2026-05-08 02:51 10.53979 87.86825 36879 ft 486 kts 117°
2026-05-08 02:51 10.50907 87.92937 36874 ft 486 kts 117°
2026-05-08 02:52 10.47831 87.99053 36877 ft 485 kts 117°
2026-05-08 02:52 10.44768 88.05140 36875 ft 485 kts 117°
2026-05-08 02:53 10.41693 88.11245 36883 ft 486 kts 117°
2026-05-08 02:53 10.38603 88.17379 36882 ft 487 kts 117°
2026-05-08 02:54 10.35517 88.23501 36871 ft 487 kts 117°
2026-05-08 02:54 10.32425 88.29630 36874 ft 488 kts 117°
2026-05-08 02:55 10.27771 88.38852 36891 ft 489 kts 117°
2026-05-08 02:56 10.24691 88.44953 36895 ft 489 kts 117°
2026-05-08 02:56 10.21575 88.51119 36894 ft 489 kts 117°
2026-05-08 02:57 10.18553 88.57309 36891 ft 490 kts 114°
2026-05-08 02:57 10.15728 88.63597 36873 ft 490 kts 114°
2026-05-08 02:58 10.12876 88.69888 36869 ft 490 kts 114°
2026-05-08 02:58 10.10004 88.76163 36874 ft 491 kts 114°
2026-05-08 02:59 10.07139 88.82407 36893 ft 491 kts 115°
2026-05-08 02:59 10.04254 88.88688 36893 ft 490 kts 114°
2026-05-08 03:00 10.01377 88.94950 36896 ft 489 kts 114°
2026-05-08 03:00 9.98500 89.01209 36898 ft 488 kts 114°
2026-05-08 03:01 9.95635 89.07438 36897 ft 487 kts 114°
2026-05-08 03:01 9.92770 89.13664 36891 ft 486 kts 114°
2026-05-08 03:02 9.89934 89.19824 36870 ft 485 kts 114°
2026-05-08 03:02 9.87081 89.26016 36861 ft 484 kts 114°
2026-05-08 03:03 9.84231 89.32199 36868 ft 484 kts 114°
2026-05-08 03:03 9.81374 89.38392 36865 ft 484 kts 114°
2026-05-08 03:04 9.78513 89.44591 36865 ft 485 kts 114°
2026-05-08 03:04 9.75653 89.50784 36875 ft 486 kts 115°
2026-05-08 03:05 9.72784 89.56995 36886 ft 486 kts 115°
2026-05-08 03:05 9.69933 89.63162 36889 ft 486 kts 115°
2026-05-08 03:06 9.67063 89.69367 36892 ft 486 kts 115°
2026-05-08 03:06 9.64188 89.75579 36892 ft 486 kts 115°
2026-05-08 03:07 9.61317 89.81779 36887 ft 486 kts 115°
2026-05-08 03:07 9.58446 89.87975 36888 ft 486 kts 114°
2026-05-08 03:08 9.55570 89.94178 36886 ft 486 kts 114°
2026-05-08 03:08 9.52699 90.00368 36884 ft 485 kts 114°
2026-05-08 03:09 9.49823 90.06566 36867 ft 485 kts 115°
2026-05-08 03:09 9.46946 90.12762 36883 ft 485 kts 115°
2026-05-08 03:10 9.44086 90.18917 36882 ft 486 kts 115°
2026-05-08 03:10 9.41205 90.25114 36881 ft 486 kts 115°
2026-05-08 03:11 9.38331 90.31294 36883 ft 486 kts 115°
2026-05-08 03:11 9.35445 90.37495 36886 ft 486 kts 115°
2026-05-08 03:12 9.32574 90.43661 36887 ft 486 kts 115°
2026-05-08 03:12 9.29692 90.49849 36886 ft 486 kts 115°
2026-05-08 03:13 9.26803 90.56046 36886 ft 486 kts 115°
2026-05-08 03:13 9.23915 90.62240 36888 ft 486 kts 115°
2026-05-08 03:14 9.21028 90.68426 36886 ft 486 kts 115°
2026-05-08 03:14 9.18144 90.74605 36886 ft 486 kts 115°
2026-05-08 03:15 9.15273 90.80751 36884 ft 486 kts 115°
2026-05-08 03:15 9.12383 90.86935 36884 ft 485 kts 115°
2026-05-08 03:16 9.09493 90.93116 36880 ft 485 kts 115°
2026-05-08 03:16 9.06606 90.99287 36876 ft 485 kts 115°
2026-05-08 03:17 9.03712 91.05470 36876 ft 486 kts 115°
2026-05-08 03:17 9.00820 91.11645 36876 ft 486 kts 115°
2026-05-08 03:18 8.97915 91.17845 36879 ft 487 kts 115°
2026-05-08 03:18 8.95035 91.23989 36882 ft 487 kts 115°
2026-05-08 03:19 8.92131 91.30181 36883 ft 488 kts 115°
2026-05-08 03:19 8.89219 91.36386 36884 ft 488 kts 115°
2026-05-08 03:20 8.86305 91.42591 36883 ft 489 kts 115°
2026-05-08 03:20 8.83384 91.48809 36890 ft 489 kts 115°
2026-05-08 03:21 8.80465 91.55020 36884 ft 489 kts 115°
2026-05-08 03:21 8.77543 91.61234 36884 ft 490 kts 115°
2026-05-08 03:22 8.74614 91.67460 36885 ft 490 kts 115°
2026-05-08 03:22 8.71703 91.73646 36886 ft 490 kts 115°
2026-05-08 03:23 8.68770 91.79873 36885 ft 490 kts 115°
2026-05-08 03:23 8.65835 91.86102 36883 ft 490 kts 115°
2026-05-08 03:24 8.62899 91.92331 36885 ft 490 kts 115°
2026-05-08 03:24 8.59981 91.98522 36877 ft 491 kts 115°
2026-05-08 03:25 8.57122 92.04780 36880 ft 491 kts 113°
2026-05-08 03:25 8.54364 92.11089 36880 ft 491 kts 113°
2026-05-08 03:26 8.51581 92.17403 36880 ft 491 kts 114°
2026-05-08 03:26 8.49262 92.22640 36886 ft 491 kts 114°
2026-05-08 03:27 8.46472 92.28930 36885 ft 490 kts 114°
2026-05-08 03:27 8.43681 92.35220 36887 ft 490 kts 114°
2026-05-08 03:28 8.40896 92.41492 36885 ft 489 kts 114°
2026-05-08 03:28 8.38112 92.47762 36884 ft 488 kts 114°
2026-05-08 03:29 8.35337 92.54007 36883 ft 487 kts 114°
2026-05-08 03:29 8.32559 92.60254 36878 ft 487 kts 114°
2026-05-08 03:30 8.28416 92.69568 36876 ft 486 kts 114°
2026-05-08 03:31 8.22881 92.82000 36879 ft 485 kts 114°
2026-05-08 03:32 8.18729 92.91317 36879 ft 485 kts 114°
2026-05-08 03:32 8.15964 92.97518 36884 ft 484 kts 114°
2026-05-08 03:33 8.13193 93.03729 36880 ft 484 kts 114°
2026-05-08 03:33 8.10427 93.09926 36880 ft 484 kts 114°
2026-05-08 03:34 8.07660 93.16123 36878 ft 485 kts 114°
2026-05-08 03:34 8.04891 93.22322 36879 ft 485 kts 114°
2026-05-08 03:35 8.02117 93.28529 36881 ft 485 kts 114°
2026-05-08 03:35 7.99357 93.34700 36883 ft 486 kts 114°
2026-05-08 03:36 7.96575 93.40919 36888 ft 486 kts 114°
2026-05-08 03:36 7.93789 93.47143 36882 ft 486 kts 114°
2026-05-08 03:37 7.91008 93.53370 36889 ft 486 kts 114°
2026-05-08 03:37 7.88249 93.59594 36885 ft 486 kts 114°
2026-05-08 03:38 7.85489 93.65813 36883 ft 486 kts 114°
2026-05-08 03:38 7.82721 93.72041 36880 ft 486 kts 114°
2026-05-08 03:39 7.79971 93.78225 36880 ft 486 kts 113°
2026-05-08 03:39 7.77207 93.84439 36883 ft 486 kts 113°
2026-05-08 03:40 7.74437 93.90662 36883 ft 486 kts 113°
2026-05-08 03:40 7.71672 93.96873 36884 ft 486 kts 113°
2026-05-08 03:41 7.68901 94.03092 36883 ft 486 kts 113°
2026-05-08 03:41 7.66148 94.09270 36884 ft 485 kts 113°
2026-05-08 03:42 7.63379 94.15482 36886 ft 485 kts 113°
2026-05-08 03:42 7.60608 94.21692 36885 ft 485 kts 113°
2026-05-08 03:43 7.57838 94.27899 36885 ft 485 kts 113°
2026-05-08 03:43 7.55069 94.34102 36882 ft 485 kts 113°
2026-05-08 03:44 7.52319 94.40258 36883 ft 484 kts 113°
2026-05-08 03:44 7.49443 94.46446 36883 ft 485 kts 115°
2026-05-08 03:45 7.46458 94.52495 36882 ft 485 kts 115°
2026-05-08 03:45 7.43479 94.58586 36884 ft 485 kts 115°
2026-05-08 03:46 7.40509 94.64697 36883 ft 485 kts 115°
2026-05-08 03:46 7.37548 94.70791 36887 ft 485 kts 115°
2026-05-08 03:47 7.34584 94.76888 36886 ft 485 kts 115°
2026-05-08 03:47 7.31620 94.82983 36884 ft 485 kts 115°
2026-05-08 03:48 7.28650 94.89088 36887 ft 485 kts 115°
2026-05-08 03:48 7.25684 94.95180 36891 ft 485 kts 115°
2026-05-08 03:49 7.22713 95.01282 36888 ft 485 kts 115°
2026-05-08 03:49 7.19746 95.07372 36889 ft 484 kts 115°
2026-05-08 03:50 7.16794 95.13429 36887 ft 484 kts 115°
2026-05-08 03:50 7.13826 95.19517 36884 ft 484 kts 115°
2026-05-08 03:51 7.10859 95.25602 36887 ft 484 kts 115°
2026-05-08 03:51 7.07886 95.31694 36890 ft 484 kts 115°
2026-05-08 03:52 7.04919 95.37773 36888 ft 484 kts 115°
2026-05-08 03:52 7.01952 95.43850 36891 ft 484 kts 115°
2026-05-08 03:53 6.98980 95.49933 36892 ft 483 kts 115°
2026-05-08 03:53 6.96029 95.55972 36891 ft 483 kts 115°
2026-05-08 03:54 6.93064 95.62038 36887 ft 483 kts 115°
2026-05-08 03:54 6.90093 95.68111 36889 ft 483 kts 115°
2026-05-08 03:54 6.88604 95.71155 37029 ft 486 kts 115°
2026-05-08 03:55 6.87112 95.74206 37488 ft 484 kts 115°
2026-05-08 03:55 6.85625 95.77243 37989 ft 482 kts 115°
2026-05-08 03:55 6.84142 95.80271 38463 ft 481 kts 115°
2026-05-08 03:55 6.82665 95.83287 38791 ft 482 kts 114°
2026-05-08 03:56 6.81180 95.86321 38879 ft 480 kts 114°
2026-05-08 03:56 6.78270 95.92262 38889 ft 476 kts 114°
2026-05-08 03:57 6.75333 95.98258 38891 ft 478 kts 114°
2026-05-08 03:57 6.72392 96.04261 38894 ft 478 kts 114°
2026-05-08 03:58 6.69449 96.10266 38890 ft 478 kts 114°
2026-05-08 03:58 6.66496 96.16288 38899 ft 480 kts 114°
2026-05-08 03:59 6.63535 96.22327 38901 ft 481 kts 114°
2026-05-08 03:59 6.60591 96.28327 38909 ft 482 kts 114°
2026-05-08 04:00 6.57623 96.34372 38908 ft 482 kts 114°
2026-05-08 04:00 6.54650 96.40429 38909 ft 482 kts 115°
2026-05-08 04:01 6.51678 96.46487 38908 ft 482 kts 114°
2026-05-08 04:01 6.49297 96.52759 38900 ft 480 kts 105°
2026-05-08 04:02 6.47458 96.59144 38899 ft 480 kts 105°
2026-05-08 04:02 6.45632 96.65361 38893 ft 480 kts 105°
2026-05-08 04:03 6.43745 96.71787 38893 ft 480 kts 105°
2026-05-08 04:03 6.40913 96.81441 38889 ft 480 kts 105°
2026-05-08 04:04 6.39021 96.87887 38894 ft 480 kts 105°
2026-05-08 04:04 6.37127 96.94336 38893 ft 480 kts 105°
2026-05-08 04:05 6.35232 97.00788 38895 ft 481 kts 105°
2026-05-08 04:05 6.33347 97.07201 38895 ft 481 kts 105°
2026-05-08 04:06 6.31450 97.13651 38899 ft 481 kts 105°
2026-05-08 04:06 6.29554 97.20095 38902 ft 481 kts 105°
2026-05-08 04:07 6.27653 97.26555 38900 ft 481 kts 105°
2026-05-08 04:07 6.25763 97.32973 38901 ft 481 kts 105°
2026-05-08 04:08 6.23859 97.39435 38898 ft 482 kts 105°
2026-05-08 04:08 6.21957 97.45886 38899 ft 482 kts 105°
2026-05-08 04:09 6.20042 97.52334 38898 ft 482 kts 107°
2026-05-08 04:09 6.17326 97.58503 38895 ft 484 kts 118°
2026-05-08 04:10 6.13478 97.64068 38898 ft 486 kts 129°
2026-05-08 04:10 6.09035 97.69185 38899 ft 486 kts 129°
2026-05-08 04:11 6.04610 97.74330 38902 ft 486 kts 129°
2026-05-08 04:11 6.00219 97.79428 38900 ft 486 kts 129°
2026-05-08 04:12 5.95789 97.84564 38898 ft 486 kts 129°
2026-05-08 04:12 5.91366 97.89688 38895 ft 485 kts 129°
2026-05-08 04:13 5.86938 97.94817 38895 ft 485 kts 129°
2026-05-08 04:13 5.82511 97.99945 38896 ft 485 kts 129°
2026-05-08 04:14 5.78092 98.05061 38894 ft 485 kts 129°
2026-05-08 04:14 5.73693 98.10153 38896 ft 485 kts 129°
2026-05-08 04:15 5.69279 98.15261 38892 ft 485 kts 129°
2026-05-08 04:15 5.65597 98.19521 38894 ft 485 kts 130°
2026-05-08 04:16 5.61180 98.24629 38885 ft 485 kts 130°
2026-05-08 04:16 5.56762 98.29738 38886 ft 485 kts 130°
2026-05-08 04:17 5.52334 98.34858 38884 ft 485 kts 130°
2026-05-08 04:17 5.47906 98.39976 38883 ft 486 kts 130°
2026-05-08 04:18 5.43473 98.45098 38883 ft 487 kts 130°
2026-05-08 04:18 5.39033 98.50227 38892 ft 487 kts 130°
2026-05-08 04:19 5.34582 98.55368 38894 ft 487 kts 130°
2026-05-08 04:19 5.30137 98.60501 38901 ft 487 kts 130°
2026-05-08 04:20 5.25713 98.65607 38900 ft 487 kts 130°
2026-05-08 04:20 5.21270 98.70736 38895 ft 487 kts 130°
2026-05-08 04:21 5.16818 98.75873 38893 ft 486 kts 130°
2026-05-08 04:21 5.12384 98.80987 38889 ft 486 kts 130°
2026-05-08 04:22 5.07941 98.86112 38885 ft 486 kts 130°
2026-05-08 04:22 5.03529 98.91200 38886 ft 486 kts 130°
2026-05-08 04:23 4.99095 98.96311 38885 ft 486 kts 130°
2026-05-08 04:23 4.94651 99.01432 38886 ft 486 kts 130°
2026-05-08 04:24 4.90220 99.06538 38891 ft 486 kts 130°
2026-05-08 04:24 4.85787 99.11644 38893 ft 485 kts 130°
2026-05-08 04:25 4.81349 99.16757 38892 ft 485 kts 130°
2026-05-08 04:25 4.76913 99.21864 38894 ft 485 kts 130°
2026-05-08 04:26 4.72484 99.26963 38894 ft 484 kts 130°
2026-05-08 04:26 4.68089 99.32022 38894 ft 484 kts 130°
2026-05-08 04:27 4.63664 99.37115 38884 ft 484 kts 130°
2026-05-08 04:27 4.59248 99.42196 38886 ft 483 kts 130°
2026-05-08 04:28 4.54854 99.47251 38880 ft 484 kts 130°
2026-05-08 04:28 4.50404 99.52369 38880 ft 484 kts 130°
2026-05-08 04:29 4.45731 99.57220 38882 ft 484 kts 133°
2026-05-08 04:29 4.41037 99.62020 38887 ft 485 kts 133°
2026-05-08 04:30 4.36316 99.66852 38893 ft 486 kts 133°
2026-05-08 04:30 4.31573 99.71701 38894 ft 486 kts 134°
2026-05-08 04:31 4.26838 99.76540 38893 ft 486 kts 134°
2026-05-08 04:31 4.22130 99.81351 38899 ft 486 kts 134°
2026-05-08 04:32 4.17399 99.86185 38900 ft 486 kts 134°
2026-05-08 04:32 4.12663 99.91023 38893 ft 486 kts 134°
2026-05-08 04:33 4.07937 99.95850 38892 ft 485 kts 134°
2026-05-08 04:33 4.03205 100.00682 38896 ft 485 kts 134°
2026-05-08 04:34 3.98481 100.05506 38890 ft 485 kts 134°
2026-05-08 04:34 3.93754 100.10331 38889 ft 484 kts 134°
2026-05-08 04:35 3.89056 100.15126 38885 ft 485 kts 134°
2026-05-08 04:35 3.84338 100.19939 38886 ft 485 kts 134°
2026-05-08 04:36 3.79601 100.24773 38887 ft 485 kts 134°
2026-05-08 04:36 3.74878 100.29591 38898 ft 485 kts 134°
2026-05-08 04:37 3.70157 100.34406 38902 ft 484 kts 134°
2026-05-08 04:37 3.65433 100.39224 38890 ft 484 kts 134°
2026-05-08 04:38 3.60724 100.44024 38887 ft 484 kts 134°
2026-05-08 04:38 3.56036 100.48804 38885 ft 484 kts 134°
2026-05-08 04:39 3.51323 100.53608 38887 ft 484 kts 134°
2026-05-08 04:39 3.46595 100.58426 38888 ft 484 kts 133°
2026-05-08 04:40 3.41869 100.63243 38886 ft 485 kts 133°
2026-05-08 04:40 3.37142 100.68060 38887 ft 485 kts 133°
2026-05-08 04:41 3.32441 100.72850 38890 ft 486 kts 133°
2026-05-08 04:41 3.27728 100.77651 38894 ft 487 kts 133°
2026-05-08 04:42 3.22988 100.82479 38898 ft 487 kts 133°
2026-05-08 04:42 3.18236 100.87318 38902 ft 487 kts 133°
2026-05-08 04:43 3.13490 100.92152 38904 ft 487 kts 133°
2026-05-08 04:43 3.08746 100.96982 38898 ft 487 kts 133°
2026-05-08 04:44 3.04019 101.01799 38895 ft 486 kts 133°
2026-05-08 04:44 2.99286 101.06626 38888 ft 486 kts 133°
2026-05-08 04:45 2.94545 101.11460 38887 ft 486 kts 133°
2026-05-08 04:45 2.89815 101.16281 38887 ft 485 kts 133°
2026-05-08 04:46 2.85080 101.21108 38884 ft 485 kts 133°
2026-05-08 04:46 2.80347 101.25931 38880 ft 485 kts 133°
2026-05-08 04:47 2.75618 101.30749 38880 ft 485 kts 133°
2026-05-08 04:47 2.70914 101.35542 38884 ft 485 kts 133°
2026-05-08 04:48 2.66177 101.40367 38889 ft 486 kts 133°
2026-05-08 04:48 2.61420 101.45213 38914 ft 489 kts 133°
2026-05-08 04:49 2.56639 101.50082 38919 ft 489 kts 133°
2026-05-08 04:49 2.51890 101.54918 38915 ft 489 kts 133°
2026-05-08 04:50 2.47128 101.59767 38903 ft 488 kts 133°
2026-05-08 04:50 2.42377 101.64604 38888 ft 487 kts 133°
2026-05-08 04:51 2.37625 101.69442 38880 ft 486 kts 133°
2026-05-08 04:51 2.32886 101.74266 38877 ft 485 kts 133°
2026-05-08 04:52 2.28158 101.79079 38871 ft 485 kts 133°
2026-05-08 04:52 2.23427 101.83893 38869 ft 484 kts 133°
2026-05-08 04:53 2.18699 101.88705 38873 ft 484 kts 133°
2026-05-08 04:53 2.13978 101.93509 38931 ft 492 kts 133°
2026-05-08 04:54 2.09160 101.98408 38941 ft 494 kts 133°
2026-05-08 04:54 2.04348 102.03304 38896 ft 486 kts 133°
2026-05-08 04:55 1.99635 102.08109 38892 ft 487 kts 132°
2026-05-08 04:55 1.95403 102.13373 38895 ft 486 kts 123°
2026-05-08 04:56 1.91671 102.19002 38889 ft 486 kts 123°
2026-05-08 04:56 1.87896 102.24636 38891 ft 486 kts 123°
2026-05-08 04:57 1.84134 102.30254 38882 ft 486 kts 123°
2026-05-08 04:57 1.80393 102.35845 38880 ft 486 kts 123°
2026-05-08 04:58 1.76626 102.41474 38876 ft 486 kts 123°
2026-05-08 04:58 1.72865 102.47095 38878 ft 487 kts 123°
2026-05-08 04:59 1.69089 102.52738 38881 ft 487 kts 123°
2026-05-08 04:59 1.65322 102.58366 38883 ft 487 kts 123°
2026-05-08 05:00 1.61573 102.63967 38877 ft 487 kts 123°
2026-05-08 05:00 1.57805 102.69596 38879 ft 487 kts 123°
2026-05-08 05:01 1.54040 102.75220 38878 ft 488 kts 123°
2026-05-08 05:01 1.50256 102.80873 38874 ft 488 kts 123°
2026-05-08 05:02 1.46478 102.86515 38874 ft 488 kts 123°
2026-05-08 05:02 1.42704 102.92152 38871 ft 488 kts 123°
2026-05-08 05:03 1.38933 102.97784 38870 ft 488 kts 123°
2026-05-08 05:03 1.35185 103.03390 38867 ft 488 kts 122°
2026-05-08 05:04 1.31416 103.09035 38864 ft 488 kts 123°
2026-05-08 05:04 1.27647 103.14679 38865 ft 487 kts 123°
2026-05-08 05:05 1.23881 103.20316 38865 ft 487 kts 123°
2026-05-08 05:05 1.20124 103.25941 38860 ft 487 kts 123°
2026-05-08 05:06 1.16991 103.30630 38859 ft 487 kts 123°
2026-05-08 05:06 1.12615 103.37181 38858 ft 487 kts 123°
2026-05-08 05:07 1.09464 103.41897 38854 ft 488 kts 123°
2026-05-08 05:07 1.05993 103.47720 38854 ft 487 kts 114°
2026-05-08 05:08 1.03755 103.54082 38857 ft 486 kts 102°
2026-05-08 05:08 1.02698 103.60707 38856 ft 486 kts 97°
2026-05-08 05:09 1.01789 103.67398 38859 ft 487 kts 97°
2026-05-08 05:09 1.00869 103.74115 38864 ft 487 kts 97°
2026-05-08 05:10 0.99505 103.84145 38876 ft 488 kts 97°
2026-05-08 05:11 0.98590 103.90873 38883 ft 488 kts 97°
2026-05-08 05:11 0.97669 103.97612 38889 ft 488 kts 97°
2026-05-08 05:12 0.96765 104.04332 38891 ft 489 kts 97°
2026-05-08 05:12 0.95847 104.11066 38893 ft 488 kts 97°
2026-05-08 05:13 0.94927 104.17782 38888 ft 487 kts 97°
2026-05-08 05:13 0.94009 104.24498 38883 ft 487 kts 97°
2026-05-08 05:14 0.93098 104.31199 38881 ft 487 kts 97°
2026-05-08 05:14 0.92195 104.37867 38878 ft 487 kts 97°
2026-05-08 05:15 0.91282 104.44582 38873 ft 487 kts 98°
2026-05-08 05:15 0.89656 104.51155 38879 ft 489 kts 109°
2026-05-08 05:16 0.86861 104.57360 38883 ft 491 kts 118°
2026-05-08 05:16 0.83372 104.63226 38883 ft 491 kts 120°
2026-05-08 05:17 0.79898 104.69117 38886 ft 492 kts 120°
2026-05-08 05:17 0.76425 104.75000 38889 ft 492 kts 120°
2026-05-08 05:18 0.72962 104.80855 38888 ft 492 kts 120°
2026-05-08 05:18 0.69485 104.86733 38884 ft 492 kts 120°
2026-05-08 05:19 0.66007 104.92613 38884 ft 491 kts 120°
2026-05-08 05:19 0.62530 104.98492 38877 ft 491 kts 120°
2026-05-08 05:20 0.59055 105.04365 38876 ft 490 kts 120°
2026-05-08 05:20 0.55589 105.10224 38873 ft 490 kts 120°
2026-05-08 05:21 0.52112 105.16103 38872 ft 490 kts 120°
2026-05-08 05:21 0.48645 105.21963 38870 ft 490 kts 120°
2026-05-08 05:22 0.45176 105.27825 38869 ft 490 kts 120°
2026-05-08 05:22 0.41687 105.33641 38860 ft 491 kts 122°
2026-05-08 05:23 0.37510 105.39039 38868 ft 492 kts 131°
2026-05-08 05:23 0.32975 105.44181 38871 ft 493 kts 130°
2026-05-08 05:24 0.28470 105.49336 38874 ft 493 kts 130°
2026-05-08 05:24 0.23955 105.54497 38876 ft 492 kts 130°
2026-05-08 05:25 0.19441 105.59652 38872 ft 492 kts 130°
2026-05-08 05:25 0.14932 105.64801 38875 ft 492 kts 130°
2026-05-08 05:26 0.10428 105.69945 38875 ft 491 kts 130°
2026-05-08 05:26 0.05967 105.75040 38872 ft 491 kts 130°
2026-05-08 05:27 0.01467 105.80178 38869 ft 490 kts 130°
2026-05-08 05:27 -0.03021 105.85304 38863 ft 490 kts 130°
2026-05-08 05:28 -0.07513 105.90434 38868 ft 490 kts 130°
2026-05-08 05:28 -0.11996 105.95553 38866 ft 489 kts 130°
2026-05-08 05:29 -0.16476 106.00669 38869 ft 489 kts 130°
2026-05-08 05:29 -0.20971 106.05803 38872 ft 490 kts 130°
2026-05-08 05:30 -0.25459 106.10928 38876 ft 490 kts 130°
2026-05-08 05:30 -0.29922 106.16025 38875 ft 490 kts 130°
2026-05-08 05:31 -0.34409 106.21149 38869 ft 489 kts 130°
2026-05-08 05:31 -0.38892 106.26268 38861 ft 489 kts 130°
2026-05-08 05:32 -0.43362 106.31375 38859 ft 488 kts 130°
2026-05-08 05:32 -0.47831 106.36479 38857 ft 488 kts 130°
2026-05-08 05:33 -0.52309 106.41593 38861 ft 488 kts 130°
2026-05-08 05:33 -0.56756 106.46672 38856 ft 488 kts 130°
2026-05-08 05:34 -0.61237 106.51790 38858 ft 489 kts 130°
2026-05-08 05:34 -0.65732 106.56881 38860 ft 489 kts 131°
2026-05-08 05:35 -0.70260 106.61970 38864 ft 489 kts 131°
2026-05-08 05:35 -0.74779 106.67060 38864 ft 489 kts 131°
2026-05-08 05:36 -0.79285 106.72140 38861 ft 488 kts 131°
2026-05-08 05:36 -0.83798 106.77226 38864 ft 488 kts 131°
2026-05-08 05:37 -0.88268 106.82266 38861 ft 487 kts 131°
2026-05-08 05:37 -0.92766 106.87336 38857 ft 486 kts 131°
2026-05-08 05:38 -0.97250 106.92392 38857 ft 486 kts 131°
2026-05-08 05:38 -1.01730 106.97443 38852 ft 486 kts 131°
2026-05-08 05:39 -1.06213 107.02498 38852 ft 485 kts 131°
2026-05-08 05:39 -1.10686 107.07541 38855 ft 485 kts 131°
2026-05-08 05:40 -1.15168 107.12595 38850 ft 485 kts 131°
2026-05-08 05:40 -1.19621 107.17617 38833 ft 486 kts 131°
2026-05-08 05:41 -1.24113 107.22683 38829 ft 487 kts 131°
2026-05-08 05:41 -1.28609 107.27754 38844 ft 488 kts 131°
2026-05-08 05:42 -1.33121 107.32843 38849 ft 489 kts 131°
2026-05-08 05:42 -1.37641 107.37943 38853 ft 490 kts 130°
2026-05-08 05:43 -1.42093 107.43096 38858 ft 490 kts 130°
2026-05-08 05:43 -1.46519 107.48248 38860 ft 490 kts 130°
2026-05-08 05:44 -1.50972 107.53413 38859 ft 490 kts 130°
2026-05-08 05:44 -1.55435 107.58584 38858 ft 490 kts 130°
2026-05-08 05:45 -1.59866 107.63718 38855 ft 490 kts 130°
2026-05-08 05:45 -1.64350 107.68916 38853 ft 490 kts 130°
2026-05-08 05:46 -1.68771 107.74039 38853 ft 490 kts 130°
2026-05-08 05:46 -1.73224 107.79201 38846 ft 489 kts 130°
2026-05-08 05:47 -1.77669 107.84353 38845 ft 489 kts 130°
2026-05-08 05:47 -1.82121 107.89514 38843 ft 490 kts 130°
2026-05-08 05:48 -1.86567 107.94669 38826 ft 490 kts 130°
2026-05-08 05:48 -1.91025 107.99839 38825 ft 490 kts 130°
2026-05-08 05:49 -1.95463 108.04985 38830 ft 491 kts 130°
2026-05-08 05:49 -1.99929 108.10163 38847 ft 492 kts 130°
2026-05-08 05:50 -2.04417 108.15368 38849 ft 494 kts 130°
2026-05-08 05:50 -2.08900 108.20565 38849 ft 495 kts 130°
2026-05-08 05:51 -2.13402 108.25781 38857 ft 495 kts 130°
2026-05-08 05:51 -2.17874 108.30965 38858 ft 495 kts 130°
2026-05-08 05:52 -2.22371 108.36178 38853 ft 494 kts 130°
2026-05-08 05:52 -2.26862 108.41384 38850 ft 494 kts 130°
2026-05-08 05:53 -2.31348 108.46586 38853 ft 493 kts 130°
2026-05-08 05:53 -2.35832 108.51785 38847 ft 493 kts 130°
2026-05-08 05:54 -2.40280 108.56944 38847 ft 492 kts 130°
2026-05-08 05:54 -2.44747 108.62125 38843 ft 492 kts 130°
2026-05-08 05:55 -2.49210 108.67302 38842 ft 491 kts 130°
2026-05-08 05:55 -2.52936 108.71612 38825 ft 492 kts 130°
2026-05-08 05:56 -2.57411 108.76781 38841 ft 492 kts 130°
2026-05-08 05:56 -2.61898 108.81965 38846 ft 492 kts 129°
2026-05-08 05:57 -2.66383 108.87151 38843 ft 492 kts 130°
2026-05-08 05:57 -2.70843 108.92308 38841 ft 493 kts 130°
2026-05-08 05:58 -2.75336 108.97503 38844 ft 493 kts 130°
2026-05-08 05:58 -2.79819 109.02688 38849 ft 493 kts 129°
2026-05-08 05:59 -2.84310 109.07883 38843 ft 493 kts 129°
2026-05-08 05:59 -2.88787 109.13062 38843 ft 492 kts 129°
2026-05-08 06:00 -2.93261 109.18251 38842 ft 492 kts 129°
2026-05-08 06:00 -2.97694 109.23405 38839 ft 491 kts 129°
2026-05-08 06:01 -3.02154 109.28588 38836 ft 491 kts 129°
2026-05-08 06:01 -3.06608 109.33763 38840 ft 490 kts 129°
2026-05-08 06:02 -3.10888 109.38738 38844 ft 490 kts 129°
2026-05-08 06:02 -3.15341 109.43914 38842 ft 490 kts 129°
2026-05-08 06:03 -3.19764 109.49055 38829 ft 490 kts 129°
2026-05-08 06:03 -3.24206 109.54221 38838 ft 490 kts 129°
2026-05-08 06:04 -3.28650 109.59388 38821 ft 490 kts 129°
2026-05-08 06:04 -3.33101 109.64565 38835 ft 490 kts 129°
2026-05-08 06:05 -3.37549 109.69738 38841 ft 489 kts 129°
2026-05-08 06:05 -3.41989 109.74904 38836 ft 489 kts 129°
2026-05-08 06:06 -3.46429 109.80069 38836 ft 489 kts 129°
2026-05-08 06:06 -3.50861 109.85228 38818 ft 489 kts 129°
2026-05-08 06:07 -3.55301 109.90395 38818 ft 489 kts 129°
2026-05-08 06:07 -3.59731 109.95552 38820 ft 489 kts 129°
2026-05-08 06:08 -3.64137 110.00683 38823 ft 489 kts 129°
2026-05-08 06:08 -3.68537 110.05807 38836 ft 489 kts 129°
2026-05-08 06:09 -3.73007 110.11013 38838 ft 489 kts 129°
2026-05-08 06:09 -3.77444 110.16182 38832 ft 489 kts 129°
2026-05-08 06:10 -3.81817 110.21280 38830 ft 489 kts 129°
2026-05-08 06:10 -3.86292 110.26491 38830 ft 489 kts 129°
2026-05-08 06:11 -3.90724 110.31655 38833 ft 489 kts 129°
2026-05-08 06:11 -3.95156 110.36823 38834 ft 489 kts 129°
2026-05-08 06:12 -3.99363 110.42105 38827 ft 487 kts 126°
2026-05-08 06:12 -4.03514 110.47484 38815 ft 487 kts 126°
2026-05-08 06:13 -4.07666 110.52856 38810 ft 488 kts 126°
2026-05-08 06:13 -4.11819 110.58234 38810 ft 488 kts 126°
2026-05-08 06:14 -4.15977 110.63621 38826 ft 488 kts 126°
2026-05-08 06:14 -4.20101 110.68966 38834 ft 489 kts 126°
2026-05-08 06:15 -4.24260 110.74358 38832 ft 489 kts 126°
2026-05-08 06:15 -4.28429 110.79762 38819 ft 490 kts 126°
2026-05-08 06:16 -4.32605 110.85176 38813 ft 491 kts 126°
2026-05-08 06:16 -4.36790 110.90604 38818 ft 493 kts 126°
2026-05-08 06:17 -4.43085 110.98770 38826 ft 494 kts 126°
2026-05-08 06:17 -4.47264 111.04194 38838 ft 495 kts 126°
2026-05-08 06:18 -4.51482 111.09668 38834 ft 496 kts 126°
2026-05-08 06:18 -4.55703 111.15147 38832 ft 496 kts 126°
2026-05-08 06:19 -4.59930 111.20635 38836 ft 497 kts 126°
2026-05-08 06:19 -4.64156 111.26114 38822 ft 497 kts 126°
2026-05-08 06:20 -4.68397 111.31580 38836 ft 497 kts 126°
2026-05-08 06:20 -4.72638 111.37049 38836 ft 496 kts 126°
2026-05-08 06:21 -4.76853 111.42487 38834 ft 496 kts 126°
2026-05-08 06:21 -4.81086 111.47952 38813 ft 496 kts 127°
2026-05-08 06:22 -4.85315 111.53413 38814 ft 496 kts 127°
2026-05-08 06:22 -4.89557 111.58893 38812 ft 496 kts 127°
2026-05-08 06:23 -4.93793 111.64366 38809 ft 497 kts 127°
2026-05-08 06:23 -4.98037 111.69850 38810 ft 498 kts 127°
2026-05-08 06:24 -5.02256 111.75303 38811 ft 498 kts 127°
2026-05-08 06:24 -5.06515 111.80810 38814 ft 499 kts 127°
2026-05-08 06:25 -5.10773 111.86315 38807 ft 500 kts 128°
2026-05-08 06:25 -5.15041 111.91835 38810 ft 501 kts 128°
2026-05-08 06:26 -5.19308 111.97356 38814 ft 501 kts 128°
2026-05-08 06:26 -5.23576 112.02880 38831 ft 501 kts 128°
2026-05-08 06:27 -5.27828 112.08383 38830 ft 501 kts 128°
2026-05-08 06:27 -5.32103 112.13919 38830 ft 501 kts 128°
2026-05-08 06:28 -5.36382 112.19460 38814 ft 502 kts 128°
2026-05-08 06:28 -5.40656 112.24997 38828 ft 502 kts 128°
2026-05-08 06:29 -5.44937 112.30543 38808 ft 502 kts 128°
2026-05-08 06:29 -5.49223 112.36099 38803 ft 503 kts 128°
2026-05-08 06:30 -5.53512 112.41659 38814 ft 504 kts 128°
2026-05-08 06:30 -5.57806 112.47228 38828 ft 504 kts 128°
2026-05-08 06:31 -5.62074 112.52764 38811 ft 505 kts 128°
2026-05-08 06:31 -5.66375 112.58344 38813 ft 505 kts 128°
2026-05-08 06:32 -5.70677 112.63927 38806 ft 505 kts 128°
2026-05-08 06:32 -5.74969 112.69499 38810 ft 505 kts 128°
2026-05-08 06:33 -5.79266 112.75079 38805 ft 505 kts 129°
2026-05-08 06:33 -5.83560 112.80656 38812 ft 504 kts 129°
2026-05-08 06:34 -5.87855 112.86237 38809 ft 504 kts 129°
2026-05-08 06:34 -5.92136 112.91801 38807 ft 504 kts 128°
2026-05-08 06:35 -5.96424 112.97374 38807 ft 504 kts 129°
2026-05-08 06:35 -6.00685 113.02915 38811 ft 503 kts 129°
2026-05-08 06:36 -6.04965 113.08482 38806 ft 503 kts 129°
2026-05-08 06:36 -6.09240 113.14046 38809 ft 503 kts 129°
2026-05-08 06:37 -6.13523 113.19620 38806 ft 503 kts 129°
2026-05-08 06:37 -6.17803 113.25192 38806 ft 503 kts 129°
2026-05-08 06:38 -6.22093 113.30751 38803 ft 503 kts 130°
2026-05-08 06:38 -6.26960 113.35777 38804 ft 501 kts 141°
2026-05-08 06:39 -6.32512 113.39993 38803 ft 499 kts 146°
2026-05-08 06:39 -6.38124 113.44042 38808 ft 500 kts 146°
2026-05-08 06:40 -6.43769 113.48126 38804 ft 500 kts 146°
2026-05-08 06:40 -6.49413 113.52203 38807 ft 499 kts 146°
2026-05-08 06:41 -6.55058 113.56280 38808 ft 499 kts 146°
2026-05-08 06:41 -6.59742 113.59665 38805 ft 499 kts 146°
2026-05-08 06:42 -6.65387 113.63744 38806 ft 499 kts 146°
2026-05-08 06:42 -6.71029 113.67822 38803 ft 499 kts 146°
2026-05-08 06:43 -6.76659 113.71893 38803 ft 499 kts 146°
2026-05-08 06:43 -6.82281 113.75960 38612 ft 494 kts 146°
2026-05-08 06:44 -6.85065 113.77974 38381 ft 491 kts 146°
2026-05-08 06:44 -6.87835 113.79978 38114 ft 491 kts 146°
2026-05-08 06:44 -6.90617 113.81990 37849 ft 493 kts 146°
2026-05-08 06:44 -6.93405 113.84007 37589 ft 494 kts 146°
2026-05-08 06:45 -6.96202 113.86031 37255 ft 495 kts 146°
2026-05-08 06:45 -6.98946 113.88063 36497 ft 498 kts 142°
2026-05-08 06:45 -7.01549 113.90400 35501 ft 505 kts 135°
2026-05-08 06:45 -7.03929 113.93033 34413 ft 512 kts 131°
2026-05-08 06:46 -7.06280 113.95740 33585 ft 513 kts 131°
2026-05-08 06:46 -7.08630 113.98426 32973 ft 507 kts 131°
2026-05-08 06:46 -7.10938 114.01057 32619 ft 496 kts 131°
2026-05-08 06:46 -7.13221 114.03657 32014 ft 491 kts 131°
2026-05-08 06:47 -7.15479 114.06229 31388 ft 488 kts 131°
2026-05-08 06:47 -7.17719 114.08781 30776 ft 484 kts 131°
2026-05-08 06:47 -7.19914 114.11283 30172 ft 481 kts 131°
2026-05-08 06:47 -7.22123 114.13801 29496 ft 478 kts 131°
2026-05-08 06:48 -7.24312 114.16296 28890 ft 473 kts 132°
2026-05-08 06:48 -7.26481 114.18769 28287 ft 468 kts 132°
2026-05-08 06:48 -7.28624 114.21215 27669 ft 463 kts 132°
2026-05-08 06:48 -7.30748 114.23639 27058 ft 459 kts 132°
2026-05-08 06:49 -7.32850 114.26037 26459 ft 455 kts 132°
2026-05-08 06:49 -7.34934 114.28415 25867 ft 451 kts 132°
2026-05-08 06:49 -7.37000 114.30773 25257 ft 447 kts 132°
2026-05-08 06:49 -7.38940 114.32987 24696 ft 444 kts 132°
2026-05-08 06:50 -7.40982 114.35318 24093 ft 441 kts 133°
2026-05-08 06:50 -7.43103 114.37524 23387 ft 440 kts 141°
2026-05-08 06:50 -7.45520 114.39137 22801 ft 433 kts 155°
2026-05-08 06:50 -7.48269 114.40150 22429 ft 420 kts 169°
2026-05-08 06:51 -7.51116 114.40439 22164 ft 407 kts 183°
2026-05-08 06:51 -7.53875 114.40064 21874 ft 399 kts 193°
2026-05-08 06:51 -7.56589 114.39452 21549 ft 399 kts 193°
2026-05-08 06:51 -7.59211 114.38891 21244 ft 400 kts 192°
2026-05-08 06:52 -7.61949 114.38392 20919 ft 400 kts 190°
2026-05-08 06:52 -7.64701 114.37957 20601 ft 399 kts 189°
2026-05-08 06:52 -7.67439 114.37561 20281 ft 395 kts 188°
2026-05-08 06:52 -7.70181 114.37434 19959 ft 392 kts 177°
2026-05-08 06:53 -7.72862 114.37856 19651 ft 390 kts 166°
2026-05-08 06:53 -7.75406 114.38784 19339 ft 387 kts 157°
2026-05-08 06:53 -7.77865 114.39881 19026 ft 386 kts 158°
2026-05-08 06:53 -7.80331 114.40955 18713 ft 385 kts 158°
2026-05-08 06:54 -7.82762 114.42007 18408 ft 383 kts 158°
2026-05-08 06:54 -7.85205 114.43065 18095 ft 381 kts 158°
2026-05-08 06:54 -7.87640 114.44120 17759 ft 378 kts 158°
2026-05-08 06:54 -7.90053 114.45167 17462 ft 377 kts 158°
2026-05-08 06:55 -7.92456 114.46210 17150 ft 375 kts 158°
2026-05-08 06:55 -7.94850 114.47251 16865 ft 373 kts 158°
2026-05-08 06:55 -7.97226 114.48283 16657 ft 372 kts 158°
2026-05-08 06:55 -7.99611 114.49320 16025 ft 375 kts 158°
2026-05-08 06:56 -8.02000 114.50359 15608 ft 370 kts 158°
2026-05-08 06:56 -8.04339 114.51377 15320 ft 363 kts 158°
2026-05-08 06:56 -8.06628 114.52373 14964 ft 363 kts 158°
2026-05-08 06:56 -8.08905 114.53362 14593 ft 363 kts 158°
2026-05-08 06:57 -8.11264 114.54388 14210 ft 361 kts 158°
2026-05-08 06:57 -8.13566 114.55389 13838 ft 359 kts 158°
2026-05-08 06:57 -8.15856 114.56385 13450 ft 358 kts 158°
2026-05-08 06:57 -8.18138 114.57377 13071 ft 356 kts 158°
2026-05-08 06:58 -8.20408 114.58365 12716 ft 353 kts 158°
2026-05-08 06:58 -8.22662 114.59344 12336 ft 353 kts 158°
2026-05-08 06:58 -8.24917 114.60326 11982 ft 353 kts 158°
2026-05-08 06:58 -8.27162 114.61302 11909 ft 350 kts 158°
2026-05-08 06:59 -8.29399 114.62275 11697 ft 349 kts 157°
2026-05-08 06:59 -8.31650 114.63253 11068 ft 354 kts 157°
2026-05-08 06:59 -8.33918 114.64238 10485 ft 354 kts 157°
2026-05-08 06:59 -8.36128 114.65199 10145 ft 346 kts 157°
2026-05-08 07:00 -8.38319 114.66151 9823 ft 339 kts 156°
2026-05-08 07:00 -8.40440 114.67073 9681 ft 324 kts 156°
2026-05-08 07:00 -8.42468 114.67956 9548 ft 310 kts 156°
2026-05-08 07:00 -8.44410 114.68800 9230 ft 298 kts 156°
2026-05-08 07:01 -8.46290 114.69618 9075 ft 292 kts 156°
2026-05-08 07:01 -8.48159 114.70433 8992 ft 292 kts 156°
2026-05-08 07:01 -8.50037 114.71253 8691 ft 295 kts 156°
2026-05-08 07:01 -8.51911 114.72072 8289 ft 293 kts 155°
2026-05-08 07:02 -8.53756 114.72878 7911 ft 291 kts 155°
2026-05-08 07:02 -8.55517 114.73844 7515 ft 287 kts 144°
2026-05-08 07:02 -8.57059 114.75099 7069 ft 284 kts 137°
2026-05-08 07:02 -8.58536 114.76406 6611 ft 279 kts 137°
2026-05-08 07:03 -8.59994 114.77675 6111 ft 276 kts 137°
2026-05-08 07:03 -8.61445 114.78934 5595 ft 273 kts 137°
2026-05-08 07:03 -8.62876 114.80173 5099 ft 270 kts 137°
2026-05-08 07:03 -8.64296 114.81400 4699 ft 263 kts 137°
2026-05-08 07:04 -8.65644 114.82565 4553 ft 246 kts 137°
2026-05-08 07:04 -8.66918 114.83667 4262 ft 238 kts 137°
2026-05-08 07:04 -8.68165 114.84749 3866 ft 234 kts 137°
2026-05-08 07:04 -8.69352 114.85777 3662 ft 224 kts 137°
2026-05-08 07:05 -8.70531 114.86801 3397 ft 224 kts 137°
2026-05-08 07:05 -8.71712 114.87827 3122 ft 224 kts 137°
2026-05-08 07:05 -8.72887 114.88846 2935 ft 221 kts 136°
2026-05-08 07:05 -8.74057 114.89859 2788 ft 222 kts 136°
2026-05-08 07:06 -8.75090 114.90924 2830 ft 202 kts 119°
2026-05-08 07:06 -8.75503 114.92207 2809 ft 186 kts 94°
2026-05-08 07:06 -8.75473 114.93433 2608 ft 168 kts 89°
2026-05-08 07:06 -8.75462 114.94617 2354 ft 163 kts 92°
2026-05-08 07:07 -8.75476 114.95756 2507 ft 166 kts 92°
2026-05-08 07:07 -8.75493 114.96910 2499 ft 166 kts 92°
2026-05-08 07:07 -8.75506 114.98085 2503 ft 167 kts 92°
2026-05-08 07:07 -8.75520 114.99283 2498 ft 171 kts 90°
2026-05-08 07:08 -8.75510 115.00476 2442 ft 165 kts 89°
2026-05-08 07:08 -8.75461 115.01581 2257 ft 153 kts 88°
2026-05-08 07:08 -8.75401 115.02647 1963 ft 151 kts 89°
2026-05-08 07:08 -8.75349 115.03717 1854 ft 153 kts 90°
2026-05-08 07:09 -8.75302 115.04805 1742 ft 155 kts 91°
2026-05-08 07:09 -8.75259 115.05883 1696 ft 154 kts 91°
2026-05-08 07:09 -8.75217 115.06967 1665 ft 155 kts 91°
2026-05-08 07:09 -8.75178 115.08050 1480 ft 156 kts 91°
2026-05-08 07:10 -8.75138 115.09143 1302 ft 155 kts 91°
2026-05-08 07:10 -8.75098 115.10226 1118 ft 152 kts 90°
2026-05-08 07:10 -8.75055 115.11225 922 ft 136 kts 90°
2026-05-08 07:10 -8.75021 115.12161 665 ft 131 kts 90°
2026-05-08 07:11 -8.74984 115.13073 410 ft 128 kts 91°
2026-05-08 07:11 -8.74946 115.13983 322 ft 130 kts 91°
2026-05-08 07:11 -8.74914 115.14890 161 ft 127 kts 89°
2026-05-08 07:11 -8.74881 115.15790 40 ft 125 kts 90°
2026-05-08 07:12 -8.74855 115.16490 34 ft 82 kts 87°
2026-05-08 07:12 -8.74834 115.16946 33 ft 50 kts 87°
2026-05-08 07:12 -8.74823 115.17232 32 ft 34 kts 88°
2026-05-08 07:12 -8.74815 115.17433 34 ft 24 kts 87°
2026-05-08 07:13 -8.74809 115.17581 34 ft 19 kts 88°
2026-05-08 07:13 -8.74803 115.17702 33 ft 14 kts 87°
2026-05-08 07:13 -8.74793 115.17770 33 ft 8 kts 57°
2026-05-08 07:13 -8.74753 115.17790 34 ft 7 kts
2026-05-08 07:14 -8.74697 115.17790 37 ft 9 kts 357°
2026-05-08 07:14 -8.74642 115.17767 38 ft 9 kts 297°
2026-05-08 07:14 -8.74639 115.17686 38 ft 15 kts 268°
2026-05-08 07:14 -8.74644 115.17558 37 ft 22 kts 268°
2026-05-08 07:15 -8.74650 115.17402 37 ft 19 kts 267°
2026-05-08 07:15 -8.74655 115.17281 37 ft 12 kts 268°
2026-05-08 07:15 -8.74654 115.17222 37 ft 6 kts 300°
2026-05-08 07:15 -8.74633 115.17207 37 ft 4 kts 355°
2026-05-08 07:16 -8.74587 115.17208 38 ft 5 kts 358°
2026-05-08 07:16 -8.74551 115.17207 38 ft 3 kts 358°
2026-05-08 07:16 -8.74537 115.17206 38 ft 1 kts 357°
2026-05-08 07:16 -8.74533 115.17206 38 ft 0 kts 357°